Wind_Speed
6 5 5 5 5 8 11 12 12 13 14 13 15 20 19 22 22 22 21 23 21 19 20 19 17 15 13 13 15 18 18 18 15 12 9 8 6 6 6 4 3 4 5
6 5 6 6 7 10 11 12 13 14 16 19 20 18 21 26 24 20 17 17 15 21 22 21 19 18 16 16 15 15 12 11 11 10 8 7 6 5 4 5 6 7 8
7 6 6 7 8 9 11 12 13 17 17 22 21 21 22 22 22 21 21 23 23 22 21 19 18 17 16 16 16 14 13 12 12 10 8 6 5 5 6 8 10 11 12
8 7 6 7 8 8 10 12 14 15 14 16 17 19 20 19 20 20 19 19 19 19 19 19 17 17 16 15 15 15 14 13 11 8 6 4 3 5 7 10 13 14 15
7 9 9 8 8 8 9 10 12 15 15 13 13 14 14 15 14 17 17 19 19 19 20 21 21 20 18 16 15 14 12 10 8 6 3 3 5 8 10 11 12 14 18
7 8 7 7 7 9 11 12 12 12 13 13 12 11 10 10 11 12 15 17 18 21 22 21 19 18 17 16 14 11 8 5 3 2 1 1 3 5 7 11 15 18 20
7 6 6 8 7 8 10 13 14 14 13 13 12 11 11 12 14 16 18 20 21 19 18 18 17 15 13 11 9 8 7 8 9 5 3 4 6 9 13 16 19 22 24
11 9 7 8 9 8 9 10 12 14 15 15 16 17 18 18 19 19 19 17 16 16 16 15 14 12 11 10 9 7 8 4 2 3 6 10 13 16 19 22 24 27 29
14 13 12 11 10 10 11 13 14 15 16 17 17 17 17 17 17 17 17 16 15 16 14 12 10 11 8 6 4 2 1 4 6 10 14 17 19 22 24 26 29 32 34
14 16 15 15 14 14 13 13 13 14 15 16 16 17 17 17 17 16 13 11 12 13 11 7 6 5 4 3 4 6 10 13 16 19 21 23 25 27 29 31 33 35 38
16 16 18 17 17 17 17 15 15 15 15 15 15 15 15 14 13 12 12 11 11 11 10 7 4 2 4 8 12 16 20 23 25 28 29 30 31 32 34 35 37 38 39
19 18 18 20 21 21 20 18 16 15 15 14 13 12 12 12 11 11 11 11 9 9 8 4 7 11 15 18 21 24 27 30 31 33 33 34 35 36 37 39 39 39 41
24 21 21 21 21 22 23 22 21 19 18 17 14 13 12 12 13 13 13 13 12 14 8 9 13 18 21 24 27 30 32 32 33 34 33 32 34 37 40 41 42 44 44
25 25 24 24 23 23 24 25 24 23 22 20 17 15 14 15 14 13 12 12 12 14 16 20 22 23 27 29 30 31 31 31 30 29 32 37 41 42 45 45 46 46 49
15 18 24 26 25 25 25 24 23 23 22 19 17 14 12 10 7 5 6 8 13 17 22 25 26 29 31 31 32 34 36 36 36 39 45 39 46 46 47 48 48 49 51
23 20 17 17 21 25 27 27 27 25 22 19 18 17 17 15 15 15 16 19 21 24 26 28 32 34 35 38 42 45 46 50 42 36 44 50 48 47 49 48 49 51 53
30 28 23 21 19 17 19 26 27 25 25 26 25 21 19 17 16 18 22 24 28 27 30 34 30 31 37 41 42 43 46 44 44 47 50 49 48 50 49 47 48 50 50
28 28 31 28 24 21 16 17 21 24 24 29 25 21 18 20 21 23 27 29 31 35 33 35 40 42 44 46 40 33 35 40 45 49 45 46 50 51 51 52 54 53 55
26 24 26 28 28 24 18 13 17 20 22 27 25 21 20 24 27 31 34 37 40 37 36 38 39 34 32 33 35 41 42 39 40 42 47 50 50 51 52 52 51 50 51
34 31 31 28 27 27 23 20 18 18 22 29 28 26 28 29 35 37 38 35 40 33 34 32 32 30 29 33 34 35 37 40 43 46 47 47 47 48 51 52 50 48 49
30 29 30 26 28 26 25 23 19 22 22 28 30 33 39 40 40 39 40 43 42 35 30 23 27 29 29 31 35 39 41 42 43 43 44 45 46 46 46 46 45 46 47
30 30 32 32 32 30 27 28 29 28 29 30 33 35 42 41 47 46 43 37 36 44 41 32 19 28 31 33 35 36 37 36 36 38 39 40 40 40 41 41 41 39 36
32 31 32 31 32 33 35 34 33 34 35 36 38 44 42 42 39 34 28 37 23 20 21 22 23 25 28 30 30 30 33 34 35 36 38 40 40 40 39 38 37 36 34
30 32 31 29 30 32 33 34 33 32 36 40 33 31 31 38 40 42 22 18 16 16 15 17 21 22 23 25 27 29 31 34 37 39 40 38 37 36 34 33 33 32 30
31 32 33 28 28 28 27 27 27 28 38 36 29 26 17 13 11 12 13 13 12 12 13 14 16 18 21 24 27 31 34 35 36 35 34 33 33 33 33 33 33 34 35
22 33 36 36 42 39 37 24 21 26 24 18 10 15 17 8 7 10 8 6 8 10 11 14 18 22 27 30 32 33 33 34 36 36 34 32 32 32 32 32 32 34 33
Wind_Direction
110 107 103 93 80 83 97 99 109 125 117 105 113 120 118 119 115 114 112 110 111 120 128 132 137 136 143 164 175 178 187 189 188 202 203 197 203 216 222 226 241 281 305
122 131 123 110 110 108 107 104 104 130 129 131 128 125 124 127 129 130 123 119 118 123 129 136 146 156 158 156 162 170 172 180 189 186 180 184 193 208 220 242 263 285 285
122 125 128 128 117 119 117 110 106 118 124 128 125 121 119 123 128 134 137 133 132 131 125 124 132 137 144 153 161 165 167 163 162 160 153 161 186 220 254 273 276 279 286
118 112 123 138 140 134 121 117 121 125 127 127 131 131 129 128 128 128 130 129 132 134 134 137 142 145 144 142 142 142 143 144 148 155 168 187 231 274 284 283 278 281 289
132 122 121 128 146 149 145 143 141 140 139 136 138 133 133 129 130 131 134 136 139 138 136 135 133 132 131 133 136 139 144 151 158 160 187 261 278 282 279 281 287 294 299
162 133 120 122 135 156 157 154 156 154 152 150 152 146 138 131 133 134 133 134 134 132 130 130 131 131 133 136 140 140 141 147 169 198 198 268 302 299 301 299 299 305 306
200 163 135 122 126 144 151 153 157 160 161 161 157 153 145 138 136 131 128 130 132 134 133 132 130 129 128 125 124 125 127 124 110 97 69 21 341 319 317 316 311 309 309
193 184 166 142 131 131 134 134 138 145 149 146 143 137 136 134 131 129 132 138 141 139 135 130 125 125 126 124 117 113 125 128 10 344 324 321 321 318 316 314 310 308 307
193 182 177 164 152 147 145 139 135 133 132 133 138 143 142 140 138 136 138 140 144 145 142 137 129 128 120 130 126 133 243 289 297 302 307 310 311 312 310 307 307 304 302
198 188 183 174 168 164 161 155 153 153 152 154 154 150 147 147 145 145 148 153 159 169 170 151 162 195 224 250 280 290 291 292 299 302 305 305 305 304 302 299 298 299 299
205 205 190 185 181 180 177 175 175 174 171 169 167 166 168 170 170 169 165 166 169 176 185 207 219 217 266 278 283 289 290 292 294 296 298 298 298 295 293 292 294 297 300
214 212 207 196 195 194 191 193 193 190 188 183 182 187 192 196 198 197 195 196 191 182 167 203 275 287 286 284 285 288 289 291 293 293 292 292 292 291 290 290 294 297 297
222 217 214 210 207 205 205 205 203 201 200 199 199 203 208 215 217 216 214 215 200 178 221 270 283 277 280 284 288 291 294 295 295 291 291 293 292 291 290 290 292 294 291
226 226 222 222 217 213 213 216 217 215 213 216 219 220 217 217 214 220 226 212 212 237 261 268 279 290 294 298 300 299 297 297 295 296 296 296 294 289 292 292 289 288 289
211 223 228 230 230 227 225 226 230 231 229 229 230 227 211 204 199 192 216 245 261 269 277 281 285 289 289 291 291 288 290 292 290 289 294 288 295 295 297 294 290 286 288
217 216 216 223 232 235 235 232 231 232 231 221 186 186 194 201 218 237 242 247 261 269 279 288 292 288 288 291 294 291 288 287 285 286 292 295 296 297 299 295 291 289 290
236 231 226 222 222 230 239 240 236 235 234 215 195 204 213 225 244 250 249 249 256 261 281 283 278 280 289 296 303 299 287 297 300 294 293 295 293 294 295 294 293 290 291
233 238 235 237 235 231 232 244 237 231 234 213 204 216 221 241 263 259 261 261 259 269 278 278 284 283 288 295 296 296 295 292 292 294 294 291 293 295 294 295 294 295 297
231 241 235 231 236 236 233 236 242 237 230 217 214 231 247 260 264 262 256 262 271 273 275 279 284 287 273 281 291 291 292 295 295 294 292 293 294 293 293 294 295 295 295
233 235 246 241 230 229 228 232 240 244 235 220 232 241 257 259 266 263 268 268 272 272 270 284 289 290 295 291 292 293 296 295 294 295 296 297 300 302 302 301 301 301 296
230 228 227 234 223 222 230 231 238 243 248 240 240 255 266 269 277 277 276 272 270 260 268 280 283 287 289 296 298 298 299 299 299 300 303 304 304 303 303 303 301 298 297
228 225 229 233 227 217 220 225 229 236 244 249 254 259 265 270 273 277 276 271 277 272 279 273 286 293 298 299 297 298 300 302 307 309 309 311 313 313 312 312 312 310 306
222 224 229 218 219 223 221 222 228 236 243 248 253 263 264 260 256 262 277 285 308 298 302 307 306 298 301 302 304 307 312 316 320 323 324 323 320 317 315 315 315 316 313
227 229 214 215 221 219 221 223 228 233 241 246 247 252 253 272 271 281 300 298 297 307 303 303 305 306 308 315 323 328 333 334 333 330 329 327 324 323 323 324 324 322 320
233 211 210 213 228 224 225 226 231 240 262 249 262 252 256 235 240 275 290 303 305 309 310 312 321 329 334 339 342 341 339 336 333 332 331 328 326 324 324 323 323 324 324
238 226 236 245 237 247 248 254 241 240 237 232 225 238 227 262 312 291 289 304 318 330 343 349 350 351 352 348 344 342 342 344 341 338 335 332 331 330 331 326 322 319 322
Height
3112 3112 3112 3113 3114 3115 3116 3116 3116 3119 3121 3121 3122 3124 3125 3126 3128 3130 3133 3136 3139 3141 3144 3148 3151 3154 3158 3163 3166 3169 3174 3177 3178 3181 3183 3185 3185 3187 3189 3189 3190 3190 3190
3113 3114 3114 3114 3115 3117 3118 3119 3120 3121 3123 3125 3126 3127 3128 3130 3132 3134 3136 3137 3141 3145 3148 3152 3156 3160 3162 3164 3167 3171 3173 3175 3178 3180 3182 3184 3185 3187 3187 3188 3188 3188 3188
3114 3114 3115 3116 3117 3119 3120 3121 3122 3124 3126 3127 3129 3130 3131 3134 3136 3139 3141 3143 3145 3148 3150 3153 3156 3159 3162 3165 3168 3171 3174 3175 3178 3180 3182 3183 3185 3186 3186 3186 3186 3186 3185
3114 3115 3116 3117 3119 3120 3121 3123 3125 3126 3128 3130 3132 3134 3135 3138 3139 3141 3143 3145 3148 3150 3153 3156 3159 3162 3164 3167 3170 3172 3174 3176 3178 3180 3183 3184 3185 3184 3184 3184 3183 3182 3180
3116 3116 3118 3118 3119 3121 3122 3125 3127 3129 3131 3132 3135 3137 3139 3140 3143 3144 3146 3149 3151 3154 3157 3160 3163 3165 3167 3169 3171 3173 3176 3178 3180 3182 3182 3182 3182 3182 3182 3181 3180 3178 3176
3117 3118 3119 3119 3121 3122 3124 3126 3128 3130 3132 3134 3136 3139 3141 3142 3144 3146 3148 3151 3154 3157 3159 3162 3164 3166 3169 3172 3174 3175 3177 3178 3178 3179 3180 3180 3180 3179 3179 3178 3176 3173 3171
3118 3119 3120 3121 3122 3124 3126 3128 3129 3131 3134 3137 3139 3141 3143 3145 3147 3149 3151 3154 3157 3160 3162 3164 3166 3169 3171 3172 3174 3175 3176 3176 3178 3178 3178 3178 3178 3177 3176 3174 3171 3168 3165
3120 3120 3121 3122 3124 3126 3127 3129 3131 3133 3136 3138 3141 3143 3146 3149 3151 3153 3155 3158 3161 3163 3164 3167 3168 3170 3171 3172 3174 3175 3176 3177 3177 3177 3176 3175 3174 3173 3170 3167 3165 3162 3159
3120 3121 3123 3124 3126 3128 3131 3132 3134 3136 3138 3141 3143 3147 3149 3151 3153 3154 3157 3160 3162 3164 3166 3168 3170 3171 3173 3174 3175 3175 3175 3175 3175 3174 3173 3171 3169 3167 3165 3162 3158 3155 3151
3120 3122 3124 3125 3128 3130 3132 3134 3136 3139 3141 3144 3147 3149 3151 3153 3155 3157 3159 3161 3163 3166 3168 3169 3171 3172 3173 3173 3173 3173 3173 3172 3171 3170 3168 3166 3163 3160 3157 3153 3150 3146 3142
3117 3121 3123 3125 3127 3131 3134 3136 3138 3141 3143 3146 3148 3150 3152 3154 3156 3158 3160 3162 3163 3165 3168 3170 3170 3171 3171 3171 3170 3170 3169 3167 3165 3163 3161 3158 3155 3152 3148 3144 3140 3137 3132
3113 3117 3121 3123 3126 3129 3132 3135 3138 3141 3143 3146 3148 3151 3153 3155 3157 3159 3160 3161 3163 3165 3168 3168 3168 3168 3168 3167 3166 3165 3162 3159 3157 3154 3152 3150 3146 3143 3138 3134 3130 3126 3121
3109 3113 3117 3120 3123 3127 3130 3133 3136 3139 3142 3145 3148 3150 3152 3154 3156 3157 3159 3160 3163 3164 3165 3166 3165 3164 3163 3161 3159 3157 3154 3151 3148 3146 3143 3141 3137 3133 3129 3125 3120 3115 3109
3104 3108 3112 3115 3119 3122 3126 3129 3132 3135 3138 3141 3144 3147 3149 3151 3153 3155 3157 3159 3161 3161 3161 3159 3159 3159 3157 3154 3151 3148 3145 3142 3140 3138 3136 3133 3129 3123 3118 3114 3108 3104 3096
3101 3104 3107 3111 3114 3117 3121 3124 3128 3131 3134 3137 3140 3143 3145 3148 3151 3153 3155 3156 3157 3156 3154 3153 3152 3150 3148 3146 3143 3140 3137 3134 3131 3128 3127 3121 3117 3112 3108 3102 3096 3090 3084
3097 3099 3102 3106 3109 3112 3115 3118 3122 3126 3129 3132 3135 3138 3141 3144 3146 3148 3149 3150 3149 3148 3147 3147 3144 3141 3138 3135 3133 3130 3128 3124 3121 3116 3112 3109 3106 3101 3097 3091 3085 3078 3073
3092 3096 3098 3101 3104 3106 3109 3112 3115 3119 3122 3125 3129 3132 3135 3138 3140 3140 3140 3141 3140 3139 3138 3136 3132 3130 3129 3126 3122 3119 3117 3112 3109 3106 3101 3097 3093 3088 3083 3078 3073 3067 3061
3086 3090 3093 3096 3099 3102 3105 3107 3110 3113 3116 3121 3124 3127 3130 3132 3133 3134 3133 3131 3130 3129 3128 3125 3123 3122 3118 3116 3112 3109 3106 3102 3098 3095 3091 3086 3082 3075 3070 3065 3059 3053 3048
3079 3083 3087 3091 3094 3097 3100 3103 3105 3108 3112 3117 3119 3121 3122 3123 3124 3124 3122 3121 3120 3118 3117 3115 3112 3108 3107 3105 3102 3100 3096 3092 3088 3084 3079 3074 3068 3062 3057 3050 3044 3040 3034
3072 3076 3079 3083 3088 3091 3094 3097 3101 3104 3107 3110 3112 3113 3114 3115 3114 3114 3111 3110 3109 3108 3107 3105 3103 3100 3098 3096 3092 3090 3086 3081 3077 3072 3067 3062 3056 3051 3045 3039 3033 3027 3021
3064 3067 3071 3075 3081 3085 3089 3092 3096 3099 3100 3102 3104 3105 3105 3105 3103 3103 3103 3103 3100 3097 3095 3094 3094 3092 3088 3087 3084 3079 3075 3071 3066 3061 3056 3051 3045 3040 3033 3027 3020 3015 3009
3055 3058 3062 3067 3071 3075 3080 3084 3088 3090 3092 3094 3096 3097 3097 3095 3094 3093 3092 3091 3090 3087 3082 3084 3078 3082 3080 3076 3074 3070 3066 3061 3056 3051 3046 3040 3034 3027 3021 3015 3009 3004 2999
3047 3050 3054 3058 3062 3066 3069 3073 3076 3080 3083 3085 3087 3086 3085 3083 3082 3083 3083 3079 3078 3077 3074 3075 3074 3075 3072 3069 3067 3062 3056 3052 3046 3041 3035 3029 3023 3018 3013 3007 3001 2995 2990
3040 3043 3046 3051 3054 3058 3060 3064 3067 3071 3074 3073 3073 3073 3074 3075 3073 3075 3072 3071 3075 3074 3072 3073 3074 3071 3068 3063 3057 3052 3047 3042 3037 3032 3027 3021 3016 3011 3005 3000 2994 2989 2985
3034 3036 3041 3044 3049 3052 3055 3057 3061 3063 3065 3064 3063 3066 3068 3067 3070 3070 3071 3071 3071 3070 3070 3068 3066 3063 3060 3056 3050 3045 3042 3037 3033 3027 3023 3016 3010 3005 2999 2993 2988 2983 2978
3029 3033 3035 3035 3040 3044 3049 3047 3048 3056 3056 3057 3056 3059 3061 3062 3064 3067 3069 3067 3066 3064 3062 3061 3060 3056 3052 3049 3046 3043 3038 3032 3027 3022 3017 3012 3005 2999 2993 2988 2984 2979 2973